TITAN 3C TRANSTAGE DEB, 27794

Orbit data source: Space-Track

TITAN 3C TRANSTAGE DEB, 27794 is space debris in HEO originally from a launch on Tue, 21 Dec 1965 UTC launched from the Air Force Eastern Test Range (AFETR). Debris objects in space refer to the collection of defunct objects orbiting the Earth. Examples of debris include non-operational satellites, rocket bodies, and fragments generated from explosions, collisions, or faulty payload assembly.

Loading next visibility...
Identifier
27794, 1965-108BJ
Orbit
HEO
Country
Flag of USUS
Related business
Manufacturer
Unknown
Mission
Spacecraft
Bus & Motor
Unknown
Mass
Unknown
Launch date (UTC)
1965-12-21 (60 years ago)
Launch vehicle
Unknown
Launch site
Air Force Eastern Test Range (AFETR)
Object type
Payload
Rocket body
Debris
Shape & HBR
Unknown shape, 0.1 m
Radar Cross Section
Small (<0.1 m²)

Expand to show TLE details & history
Last TLE update: 3 days ago

TLE from 3 days ago
0 TITAN 3C TRANSTAGE DEB
1 27794U 65108BJ  26130.42033787 -.00000016  00000-0 -11602-2 0  9996
2 27794  26.2483 148.5781 6710129 151.6697 357.7543  2.77211082121896
Epoch: 2026-05-10T10:05Z
TLE epoch observation values (Epoch: 2026-05-10T10:05:17.191Z)
Latitude
17.77461°
Longitude
-91.27077°
Altitude
770.383 km
Speed
9.64 km/s
True Right ascension
19h 13m 05s
True Declination
17° 40' 30"
Sunlit
Object was in daylight at epoch
Visualization orbit readout
Latitude
Unknown
Longitude
Unknown
Altitude
Unknown
Speed
Unknown
Apparent Right ascension
Unknown
Apparent Declination
Unknown
Sunlit
N/A
Visualization observer readout
Local Sidereal Time
23:50:13
Azimuth
Unknown
Elevation
Unknown
Doppler factor
Unknown
Orbital elements
Apogee altitude
29,396.938 km
Perigee altitude
665.219 km
Semi-major axis
21,409.215 km
Eccentricity
0.67101
Inclination
26.2483°
RAAN
148.5781°
Arg. of periapsis
151.6697°
True anomaly
344.76148°
Mean anomaly
357.7543°
Eccentric anomaly
353.20634°
Mean motion
0.69285 °/min
Orbital period
519.59 mins
BSTAR
-0.0011602
Loading maneuver chart data...
Computing Atmospheric mass density...

Documentation

Showing up to 5 results
|